Geneva, Switzerland

9:48 AM CET on January 21, 2018 (GMT +0100)
Cointrin

Weather History for LSGG - December, 2012

Change the Weather History Date:

Saturday, December 1, 2012

  Actual Average Record
Temperature  
Mean Temperature 31 °F -  
Max Temperature 36 °F 40 °F 59 °F (2011)
Min Temperature 24 °F 30 °F 24 °F (2012)
Degree Days  
Heating Degree Days 34    
Moisture  
Dew Point 26 °F    
Average Humidity 72    
Maximum Humidity 93    
Minimum Humidity 55    
Precipitation  
Precipitation 0.00 in 0.11 in - ()
Sea Level Pressure  
Sea Level Pressure 29.91 in    
Wind  
Wind Speed 7 mph ()    
Max Wind Speed 12 mph    
Max Gust Speed -    
Visibility 7.0 miles    
Events      
Averages and records for this station are not official NWS values.
T = Trace of Precipitation, MM = Missing Value Source: Averaged Metar Reports

Daily Weather History Graph

Daily Weather History Graph

Search for Another Location

Airport or City:

Trip Planner

Search our weather history database for the weather conditions in past years. The results will help you decide how hot, cold, wet, or windy it might be!

Date:

Astronomy

Dec. 01, 2012 Rise Set
Actual Time 7:58 AM CET 4:50 PM CET
Civil Twilight 7:24 AM CET 5:25 PM CET
Nautical Twilight 6:46 AM CET 6:02 PM CET
Astronomical Twilight 6:10 AM CET 6:38 PM CET
Moon 7:28 PM CET (12/1) 9:58 AM CET (12/1)
Length of Visible Light 10h 01m
Length of Day
8h 52m
Waning Gibbous, 93% of the Moon is Illuminated
Dec 1
Waning Gibbous
Dec 6
Last Quarter
Dec 13
New
Dec 20
First Quarter
Dec 28
Full

Hourly Weather History & Observations

Time (CET) Temp. Windchill Dew Point Humidity Pressure Visibility Wind Dir Wind Speed Gust Speed Precip Events Conditions
12:00 AM 35 °F - 25 °F 56% 29.84 in - NNE 11.5 mph - -  
12:20 AM 35.6 °F 28.6 °F 26.6 °F 70% 29.77 in 6.2 mi NNE 9.2 mph - N/A   Mostly Cloudy
12:50 AM 35.6 °F 27.5 °F 26.6 °F 70% 29.77 in 6.2 mi NNE 11.5 mph - N/A   Mostly Cloudy
1:00 AM 35 °F - 25 °F 56% 29.85 in 19 mi NNE 10.4 mph - -   Mostly Cloudy
1:20 AM 33.8 °F 26.4 °F 26.6 °F 75% 29.80 in 6.2 mi NNE 9.2 mph - N/A   Mostly Cloudy
1:50 AM 33.8 °F 27.0 °F 26.6 °F 75% 29.80 in 6.2 mi North 8.1 mph - N/A   Mostly Cloudy
2:00 AM 34 °F - 26 °F 62% 29.85 in - North 8.1 mph - -  
2:50 AM 33.8 °F 26.4 °F 26.6 °F 75% 29.80 in 6.2 mi NNE 9.2 mph - N/A   Mostly Cloudy
3:00 AM 34 °F - 25 °F 60% 29.86 in - NNE 10.4 mph - -  
3:20 AM 33.8 °F 26.4 °F 26.6 °F 75% 29.80 in 6.2 mi NNE 9.2 mph - N/A   Mostly Cloudy
3:50 AM 33.8 °F 26.4 °F 26.6 °F 75% 29.80 in 6.2 mi NNE 9.2 mph - N/A   Mostly Cloudy
4:20 AM 33.8 °F 26.4 °F 26.6 °F 75% 29.80 in 6.2 mi NNE 9.2 mph - N/A   Mostly Cloudy
4:50 AM 33.8 °F 25.3 °F 26.6 °F 75% 29.80 in 6.2 mi NNE 11.5 mph - N/A   Mostly Cloudy
5:00 AM 34 °F - 25 °F 58% 29.87 in - NNE 9.2 mph - -  
5:20 AM 33.8 °F 26.4 °F 26.6 °F 75% 29.80 in 6.2 mi NNE 9.2 mph - N/A   Mostly Cloudy
5:50 AM 33.8 °F 26.4 °F 26.6 °F 75% 29.80 in 6.2 mi NNE 9.2 mph - N/A   Mostly Cloudy
6:00 AM 33 °F - 24 °F 60% 29.88 in - NNE 10.4 mph - -  
6:20 AM 33.8 °F 25.8 °F 24.8 °F 70% 29.80 in 6.2 mi NNE 10.4 mph - N/A   Mostly Cloudy
6:50 AM 33.8 °F 25.8 °F 24.8 °F 70% 29.83 in 6.2 mi NNE 10.4 mph - N/A   Mostly Cloudy
7:00 AM 33 °F - 24 °F 60% 29.90 in 19 mi NNE 9.2 mph - -   Mostly Cloudy
7:20 AM 33.8 °F 27.0 °F 24.8 °F 70% 29.83 in 6.2 mi NNE 8.1 mph - N/A   Mostly Cloudy
7:50 AM 33.8 °F 26.4 °F 24.8 °F 70% 29.83 in 6.2 mi NNE 9.2 mph - N/A   Mostly Cloudy
8:00 AM 33 °F - 24 °F 58% 29.91 in - NNE 9.2 mph - -  
8:20 AM 33.8 °F 27.7 °F 24.8 °F 70% 29.86 in 6.2 mi NNE 6.9 mph - N/A   Mostly Cloudy
8:50 AM 33.8 °F 25.8 °F 24.8 °F 70% 29.86 in 6.2 mi NNE 10.4 mph - N/A   Mostly Cloudy
9:00 AM 33 °F - 24 °F 60% 29.93 in - NNE 8.1 mph - -  
9:20 AM 33.8 °F 27.7 °F 24.8 °F 70% 29.86 in 6.2 mi NNE 6.9 mph - N/A   Mostly Cloudy
9:50 AM 33.8 °F 27.0 °F 24.8 °F 70% 29.86 in 6.2 mi NNE 8.1 mph - N/A   Mostly Cloudy
10:20 AM 33.8 °F 26.4 °F 26.6 °F 75% 29.89 in 6.2 mi NNE 9.2 mph - N/A   Mostly Cloudy
10:50 AM 33.8 °F 27.0 °F 26.6 °F 75% 29.89 in 6.2 mi NNE 8.1 mph - N/A   Mostly Cloudy
11:00 AM 34 °F - 26 °F 61% 29.97 in - NNE 10.4 mph - -  
11:20 AM 33.8 °F 27.0 °F 26.6 °F 75% 29.89 in 6.2 mi NE 8.1 mph - N/A   Mostly Cloudy
11:50 AM 33.8 °F 26.4 °F 26.6 °F 75% 29.89 in 6.2 mi NE 9.2 mph - N/A   Mostly Cloudy
12:00 PM 34 °F - 26 °F 62% 29.97 in - NE 9.2 mph - -  
12:20 PM 33.8 °F 28.6 °F 26.6 °F 75% 29.89 in 6.2 mi NE 5.8 mph - N/A   Mostly Cloudy
12:50 PM 33.8 °F 29.6 °F 26.6 °F 75% 29.89 in 6.2 mi NE 4.6 mph - N/A   Mostly Cloudy
1:00 PM 35 °F - 25 °F 57% 29.96 in 12 mi NNE 4.6 mph - -   Mostly Cloudy
1:20 PM 35.6 °F - 26.6 °F 70% 29.89 in 6.2 mi Variable 2.3 mph - N/A   Mostly Cloudy
1:50 PM 35.6 °F 32.8 °F 26.6 °F 70% 29.89 in 6.2 mi NNE 3.5 mph - N/A   Mostly Cloudy
2:00 PM 35 °F - 26 °F 60% 29.96 in - North 4.6 mph - -  
2:20 PM 35.6 °F 30.7 °F 26.6 °F 70% 29.89 in 6.2 mi ENE 5.8 mph - N/A   Scattered Clouds
2:50 PM 35.6 °F 30.7 °F 24.8 °F 65% 29.92 in 6.2 mi ENE 5.8 mph - N/A   Mostly Cloudy
3:00 PM 35 °F - 25 °F 55% 29.97 in - NE 6.9 mph - -  
3:20 PM 35.6 °F 31.7 °F 24.8 °F 65% 29.92 in 6.2 mi NE 4.6 mph - N/A   Mostly Cloudy
3:50 PM 35.6 °F 31.7 °F 26.6 °F 70% 29.92 in 6.2 mi NE 4.6 mph - N/A   Mostly Cloudy
4:20 PM 35.6 °F 32.8 °F 26.6 °F 70% 29.92 in 6.2 mi Variable 3.5 mph - N/A   Mostly Cloudy
4:50 PM 35.6 °F - 26.6 °F 70% 29.92 in 6.2 mi Variable 2.3 mph - N/A   Mostly Cloudy
5:00 PM 35 °F - 26 °F 60% 30.00 in - ENE 2.3 mph - -  
5:20 PM 35.6 °F 32.8 °F 26.6 °F 70% 29.95 in 6.2 mi ENE 3.5 mph - N/A   Mostly Cloudy
5:50 PM 35.6 °F 32.8 °F 26.6 °F 70% 29.95 in 6.2 mi Variable 3.5 mph - N/A   Overcast
6:00 PM 35 °F - 26 °F 61% 30.01 in - NE 5.8 mph - -  
6:20 PM 33.8 °F - 26.6 °F 75% 29.95 in 6.2 mi Variable 2.3 mph - N/A   Overcast
6:50 PM 33.8 °F 28.6 °F 26.6 °F 75% 29.95 in 6.2 mi ENE 5.8 mph - N/A   Mostly Cloudy
7:00 PM 33 °F - 25 °F 64% 30.03 in 11 mi NNE 4.6 mph - -   Overcast
7:20 PM 32.0 °F - 26.6 °F 80% 29.98 in 6.2 mi Variable 2.3 mph - N/A   Mostly Cloudy
7:50 PM 30.2 °F - 26.6 °F 86% 29.98 in 6.2 mi Variable 1.2 mph - N/A   Partly Cloudy
8:00 PM 30 °F - 25 °F 76% 30.06 in - North 2.3 mph - -  
8:20 PM 28.4 °F - 26.6 °F 93% 29.98 in 6.2 mi Variable 2.3 mph - N/A   Scattered Clouds
8:50 PM 28.4 °F - 26.6 °F 93% 29.98 in 6.2 mi South 2.3 mph - N/A   Scattered Clouds
9:00 PM 29 °F - 25 °F 78% 30.07 in - SW 1.2 mph - -  
9:20 PM 28.4 °F - 24.8 °F 86% 29.98 in 6.2 mi WNW 2.3 mph - N/A   Partly Cloudy
9:50 PM 28.4 °F - 26.6 °F 93% 30.01 in - Variable 2.3 mph - N/A   Clear
10:20 PM 26.6 °F - 24.8 °F 93% 30.01 in - Variable 2.3 mph - N/A   Clear
10:50 PM 26.6 °F - 24.8 °F 93% 30.01 in - Variable 1.2 mph - N/A   Clear
11:00 PM 27 °F - 24 °F 81% 30.10 in - WNW 3.5 mph - -  
11:20 PM 26.6 °F - 24.8 °F 93% 30.01 in - Variable 1.2 mph - N/A   Clear
11:50 PM 24.8 °F - 23.0 °F 93% 30.01 in - SW 2.3 mph - N/A   Clear